Regional Weather Roundup
Issued by NWS

Home | Current Version | Previous Version | Graphics & Text | Print | Product List | Glossary Off
Versions: 1 2 3 4 5 6 7 8 9 10 11 12 13 14 15 16 17 18 19 20 21 22 23 24 25 26 27 28 29 30 31 32 33 34 35 36 37 38 39 40 41 42 43 44 45 46 47 48 49 50

000
ASUS43 KTOP 182159
RWRKS

WEATHER ROUNDUP FOR KANSAS
NATIONAL WEATHER SERVICE GOODLAND KS
400 PM CST SAT NOV 18 2017

NOTE:  "FAIR" INDICATES FEW OR NO CLOUDS BELOW 12,000 FEET WITH NO
SIGNIFICANT WEATHER AND/OR OBSTRUCTIONS TO VISIBILITY.

KSZ001>006-013>018-027>032-041>047-182300-
NORTHWEST KANSAS

CITY           SKY/WX    TMP DP  RH WIND       PRES   REMARKS
GOODLAND       SUNNY     47  14  26 N14G26    30.20S
HAYS           SUNNY     52  22  30 NW20G30   30.17R
HILL CITY      SUNNY     51  22  31 NW20      30.18S
RUSSELL        LGT RAIN  52  23  32 N21       30.15R
$$

KSZ061>065-074>080-084>089-182300-
SOUTHWEST KANSAS

CITY           SKY/WX    TMP DP  RH WIND       PRES   REMARKS
DODGE CITY     SUNNY     51  19  28 N15G30    30.20R
GARDEN CITY    SUNNY     50  13  22 N18       30.22R
GREAT BEND     SUNNY     52  21  29 NW22      30.16R
LIBERAL        SUNNY     52  14  22 N17G28    30.24R
$$

KSZ066>073-081>083-090>101-182300-
SOUTHEAST KANSAS

CITY           SKY/WX    TMP DP  RH WIND       PRES   REMARKS
CHANUTE        MOSUNNY   54  33  45 N23G32    30.06R
COFFEYVILLE    MOSUNNY   54  35  48 NW17G28   30.07R
HUTCHINSON     SUNNY     53  24  32 N17G33    30.13R
MEDICINE LODGE   N/A     55  24  30 N14G28    30.17R
NEWTON         MOSUNNY   53  24  32 NW23G32   30.12R
PARSONS        MOSUNNY   54  35  48 NW16G29   30.08R
WICHITA INTL   MOSUNNY   55  24  30 N20G32    30.13R
WICHITA JABRA  MOSUNNY   54  25  32 NW20G31   30.11R
WICHITA MCCONL MOSUNNY   55  23  29 N20G31    30.12R
WINFIELD       MOSUNNY   54  30  40 N22G31    30.13R
$$

KSZ007>012-019>026-033>040-048>060-102>105-182300-
NORTHEAST KANSAS

CITY           SKY/WX    TMP DP  RH WIND       PRES   REMARKS
CONCORDIA      MOSUNNY   51  25  36 N22G30    30.11R
EMPORIA        SUNNY     53  28  38 NW21G29   30.08R
LAWRENCE       MOSUNNY   52  31  44 NW23G32   30.04R
MANHATTAN      SUNNY     53  26  35 NW12G26   30.10R
OLATHE IND     CLEAR     50  32  50 NW20G36   30.03R
OLATHE EXE     PTCLDY    50  29  44 N18G30    30.02R
SALINA         SUNNY     56  23  27 N26G36    30.12R
TOPEKA BILLARD PTSUNNY   54  31  41 NW18G28   30.05R
TOPEKA FORBES  PTSUNNY   53  30  41 N22G32    30.05R
$$




USA.gov is the U.S. government's official web portal to all federal, state and local government web resources and services.